Temp
17 17 17 18 18 19 19 20 20 21 21 21 22 23 24 25 25 26 27 27 27 27 25 25 23 23 22 21 21 22 25 26 26 25 26 25 25 24 23 23 23 22 21 20 18
17 17 17 18 18 19 19 20 20 21 21 21 22 22 23 25 26 27 27 27 27 27 26 26 24 23 22 22 22 22 25 27 26 27 27 26 26 24 24 24 22 19 19 20 19
16 17 17 18 18 19 19 20 20 21 21 21 22 22 23 24 26 27 27 28 27 27 26 25 24 23 23 22 23 24 26 26 28 27 27 26 25 25 24 24 23 20 19 18 18
16 17 17 18 18 19 19 20 20 21 21 22 22 22 23 24 27 26 27 28 27 26 26 25 25 23 25 26 24 25 25 26 27 27 27 26 25 25 25 25 24 21 22 19 19
16 17 17 18 18 19 20 20 20 21 22 22 22 22 23 23 26 27 28 28 27 27 26 26 24 24 27 27 25 25 27 27 27 27 27 26 26 26 25 23 22 21 20 20 20
17 17 17 18 19 19 20 20 21 22 22 22 22 22 22 23 26 27 27 28 28 27 26 26 26 25 26 27 27 27 27 27 26 27 27 26 25 25 23 22 21 20 20 21 21
17 17 18 18 19 19 20 21 22 22 23 23 22 22 22 25 26 27 27 27 27 27 27 27 26 25 26 28 26 27 27 28 27 27 26 26 25 26 23 22 21 21 21 21 21
17 17 18 18 19 20 21 22 22 22 23 23 22 22 23 24 25 25 26 27 27 27 26 26 26 25 26 27 28 27 28 28 27 27 25 25 27 24 22 22 22 21 21 20 20
17 17 18 19 19 20 21 22 22 22 22 22 22 22 23 23 24 25 26 27 27 27 27 26 25 25 26 28 29 28 28 28 28 26 27 27 26 25 23 23 23 22 22 21 21
17 18 18 19 19 20 20 22 21 21 21 21 21 21 24 25 25 25 26 26 27 26 25 24 25 27 27 29 28 28 28 28 28 27 26 26 26 25 23 23 24 23 22 22 22
16 18 19 19 19 20 21 21 21 20 20 22 21 22 24 25 25 26 26 27 26 26 28 26 28 28 29 28 28 27 27 28 29 26 27 26 26 25 24 24 24 24 23 22 23
16 17 18 19 20 20 20 20 18 17 17 21 22 21 23 23 23 25 26 27 26 28 26 27 28 28 28 27 28 27 28 29 28 26 26 25 26 26 25 24 25 24 24 24 23
16 17 18 19 20 20 20 19 19 19 17 20 21 21 22 23 23 25 26 26 27 26 27 28 29 27 28 28 29 30 29 29 28 25 25 26 28 25 25 25 24 24 24 24 24
15 16 17 19 19 20 19 19 19 20 21 24 23 23 22 22 25 26 26 27 26 27 26 28 28 28 28 29 29 29 27 27 26 27 27 25 28 25 25 24 24 24 24 24 24
15 16 17 18 19 19 19 19 20 19 24 25 24 23 23 23 25 25 26 27 27 27 27 28 27 27 29 29 28 28 26 26 26 26 26 25 26 28 23 25 25 25 25 24 24
16 16 17 18 19 19 19 20 20 22 23 24 24 24 25 24 25 25 25 26 25 26 25 27 25 28 29 28 28 27 27 26 25 27 28 24 26 30 27 27 27 26 25 25 24
16 16 17 18 19 19 19 20 21 22 22 23 24 24 23 25 26 26 26 26 27 26 26 27 28 28 27 28 26 27 29 28 28 27 27 23 24 29 29 28 29 28 26 25 24
17 17 18 19 19 19 19 21 21 21 22 22 23 23 24 25 25 25 26 27 24 26 25 27 27 27 28 29 30 28 30 29 27 28 29 22 27 32 28 27 27 26 26 25 25
17 18 18 19 20 20 19 21 21 20 21 22 23 24 25 25 25 25 26 27 28 26 27 26 26 26 26 28 30 27 28 28 28 23 26 28 29 30 27 27 27 27 25 25 24
17 18 17 18 19 19 20 18 19 18 20 21 22 23 24 25 25 26 25 26 26 25 26 27 27 26 27 28 26 29 27 29 27 27 28 29 27 30 31 30 28 28 27 27 26
18 17 16 17 18 19 20 19 19 19 19 21 22 22 23 23 24 25 26 26 26 24 24 26 27 28 27 28 29 27 28 26 27 27 29 29 30 30 29 28 29 29 28 28 27
17 18 17 17 19 13 19 18 18 20 19 21 21 22 22 23 25 25 26 26 25 25 25 26 27 28 29 28 26 28 29 29 29 27 26 27 31 30 28 27 26 28 28 27 28
15 15 16 17 19 18 17 19 18 20 21 21 22 21 21 23 24 25 25 26 25 25 25 25 26 27 28 28 26 28 27 26 26 26 26 29 31 29 27 26 24 25 25 25 27
14 17 16 16 14 17 18 18 19 19 19 20 21 21 21 23 23 24 25 26 24 24 22 25 25 27 28 28 28 27 27 26 29 29 27 29 30 31 28 25 23 23 24 26 27
13 11 10 16 16 15 16 17 18 19 19 19 21 21 20 22 23 24 24 25 25 22 22 26 26 24 24 25 26 26 27 26 27 28 29 28 27 29 25 23 22 22 23 25 27
11 11 11 12 11 15 13 16 17 18 17 20 19 20 21 21 20 20 21 23 24 25 25 24 25 24 25 24 25 26 24 25 25 23 24 25 26 24 23 22 23 24 24 26 26
10 10 10 11 13 15 15 15 16 16 18 18 18 19 20 20 17 17 19 20 21 22 25 25 25 25 25 23 24 26 25 25 24 23 25 27 27 24 24 23 23 22 23 23 26
Height
1531 1529 1527 1526 1524 1522 1520 1518 1517 1515 1513 1511 1510 1507 1506 1504 1504 1503 1502 1505 1506 1508 1509 1509 1509 1510 1510 1509 1508 1507 1508 1507 1504 1506 1503 1505 1506 1510 1512 1514 1517 1519 1520 1523 1528
1530 1528 1527 1525 1523 1521 1519 1517 1515 1513 1512 1510 1508 1506 1504 1502 1502 1500 1502 1503 1505 1507 1509 1509 1509 1509 1509 1508 1508 1509 1508 1503 1499 1499 1500 1502 1505 1508 1512 1514 1519 1518 1520 1524 1529
1530 1528 1525 1523 1521 1519 1517 1515 1512 1511 1510 1508 1507 1505 1503 1501 1500 1499 1498 1501 1505 1506 1508 1509 1509 1509 1508 1508 1507 1506 1505 1500 1497 1499 1499 1501 1504 1507 1510 1514 1515 1517 1520 1525 1529
1529 1527 1525 1522 1520 1517 1515 1513 1511 1509 1507 1506 1505 1504 1502 1501 1502 1498 1497 1500 1503 1506 1508 1508 1508 1509 1507 1507 1507 1506 1502 1500 1498 1498 1499 1501 1504 1506 1509 1510 1513 1516 1518 1523 1527
1529 1526 1523 1521 1518 1515 1513 1510 1508 1506 1505 1504 1503 1503 1501 1501 1499 1498 1497 1500 1503 1505 1507 1508 1509 1509 1506 1507 1506 1503 1498 1497 1497 1496 1497 1500 1502 1504 1508 1508 1511 1517 1520 1523 1527
1528 1525 1522 1519 1516 1513 1510 1508 1505 1504 1502 1501 1501 1501 1501 1502 1497 1498 1499 1500 1503 1505 1506 1508 1509 1508 1506 1505 1503 1500 1497 1496 1496 1495 1495 1497 1501 1502 1507 1508 1512 1516 1521 1523 1525
1526 1523 1520 1517 1513 1510 1507 1505 1502 1501 1500 1499 1499 1499 1499 1497 1496 1497 1499 1501 1503 1505 1506 1508 1509 1510 1508 1503 1503 1499 1500 1498 1499 1497 1500 1501 1505 1502 1505 1509 1512 1516 1520 1524 1526
1525 1522 1518 1515 1511 1508 1504 1502 1500 1498 1498 1497 1498 1498 1495 1494 1495 1497 1499 1501 1503 1504 1505 1507 1508 1509 1509 1505 1501 1499 1497 1503 1497 1498 1502 1503 1505 1505 1508 1507 1511 1516 1518 1523 1526
1522 1519 1516 1513 1509 1506 1503 1500 1498 1497 1496 1496 1497 1497 1495 1493 1494 1496 1498 1500 1502 1503 1504 1506 1508 1509 1508 1505 1502 1501 1507 1502 1498 1497 1499 1501 1504 1503 1507 1509 1509 1513 1516 1519 1523
1519 1516 1514 1511 1507 1504 1502 1499 1497 1496 1496 1495 1495 1498 1493 1493 1493 1494 1496 1499 1501 1502 1505 1507 1508 1507 1507 1503 1516 1513 1508 1501 1502 1498 1498 1501 1501 1502 1505 1507 1507 1509 1513 1516 1519
1516 1513 1511 1509 1506 1503 1502 1499 1500 1498 1495 1492 1492 1491 1489 1490 1491 1493 1494 1497 1500 1502 1502 1505 1505 1505 1501 1503 1504 1506 1506 1502 1493 1495 1495 1499 1499 1498 1502 1504 1505 1507 1510 1514 1516
1514 1511 1509 1507 1504 1503 1502 1500 1502 1503 1494 1487 1487 1486 1487 1489 1490 1490 1493 1497 1498 1499 1501 1503 1501 1499 1501 1503 1503 1504 1504 1498 1493 1496 1497 1498 1496 1491 1494 1494 1496 1501 1506 1509 1513
1513 1509 1506 1505 1503 1503 1501 1501 1499 1498 1497 1486 1484 1483 1483 1487 1488 1488 1490 1492 1495 1499 1499 1498 1494 1496 1498 1501 1502 1498 1502 1498 1502 1498 1498 1496 1489 1492 1490 1492 1496 1499 1502 1505 1507
1511 1507 1504 1503 1504 1501 1501 1500 1498 1497 1496 1485 1483 1483 1483 1484 1486 1485 1487 1490 1493 1494 1498 1496 1494 1496 1498 1500 1498 1502 1497 1498 1500 1500 1507 1503 1506 1490 1488 1488 1489 1492 1495 1498 1502
1509 1505 1503 1501 1501 1500 1501 1499 1498 1497 1504 1483 1483 1483 1483 1484 1482 1483 1485 1488 1488 1491 1495 1494 1493 1494 1496 1497 1496 1500 1499 1499 1499 1502 1504 1507 1509 1484 1489 1485 1482 1484 1487 1491 1495
1506 1503 1500 1499 1499 1499 1498 1498 1499 1502 1504 1485 1483 1483 1483 1482 1481 1482 1485 1487 1489 1491 1493 1492 1493 1491 1489 1494 1494 1496 1497 1498 1500 1498 1508 1514 1510 1481 1482 1475 1471 1476 1480 1484 1487
1503 1499 1496 1496 1497 1497 1497 1498 1503 1503 1489 1490 1487 1485 1484 1481 1480 1480 1482 1486 1489 1501 1498 1492 1489 1489 1491 1494 1496 1495 1495 1510 1512 1513 1515 1515 1515 1483 1471 1468 1468 1470 1473 1477 1481
1499 1495 1493 1493 1494 1495 1496 1498 1508 1499 1495 1490 1487 1484 1483 1479 1481 1482 1482 1486 1489 1490 1499 1499 1499 1485 1482 1484 1488 1491 1490 1503 1525 1518 1507 1515 1500 1470 1466 1466 1467 1469 1470 1472 1475
1495 1492 1491 1491 1491 1493 1497 1500 1501 1500 1496 1493 1485 1484 1481 1480 1480 1481 1482 1480 1479 1484 1493 1498 1496 1480 1480 1480 1481 1494 1497 1489 1499 1516 1513 1494 1480 1464 1464 1462 1463 1465 1465 1466 1469
1492 1491 1491 1491 1491 1494 1496 1504 1501 1499 1496 1494 1496 1490 1490 1483 1481 1479 1484 1478 1478 1479 1480 1484 1495 1481 1479 1481 1484 1481 1485 1496 1499 1515 1515 1494 1494 1477 1461 1460 1461 1462 1462 1464 1466
1492 1493 1495 1494 1495 1496 1498 1502 1500 1496 1496 1494 1493 1492 1489 1488 1483 1481 1481 1477 1475 1478 1480 1481 1484 1483 1480 1479 1479 1487 1487 1493 1491 1496 1499 1503 1483 1459 1462 1460 1458 1458 1460 1461 1463
1492 1494 1496 1496 1498 1502 1500 1502 1499 1495 1494 1494 1492 1490 1489 1485 1482 1480 1479 1475 1474 1475 1479 1477 1478 1485 1479 1474 1478 1476 1477 1476 1486 1501 1499 1495 1479 1456 1461 1465 1465 1463 1462 1460 1461
1495 1497 1498 1498 1498 1501 1502 1500 1499 1496 1494 1493 1490 1490 1489 1486 1488 1480 1476 1473 1473 1473 1475 1477 1481 1487 1480 1478 1478 1476 1477 1480 1480 1484 1495 1490 1475 1458 1463 1465 1466 1465 1464 1463 1464
1498 1498 1500 1500 1503 1504 1503 1501 1499 1497 1496 1495 1492 1490 1489 1485 1482 1482 1477 1471 1471 1472 1472 1473 1478 1475 1479 1473 1470 1476 1475 1477 1472 1479 1486 1478 1468 1455 1457 1463 1467 1465 1462 1460 1459
1501 1506 1507 1504 1504 1505 1505 1504 1500 1499 1497 1495 1491 1492 1492 1487 1483 1482 1477 1472 1471 1473 1473 1471 1476 1480 1477 1474 1471 1471 1472 1475 1475 1474 1475 1475 1475 1462 1467 1467 1463 1458 1459 1457 1457
1506 1508 1508 1508 1508 1506 1507 1505 1503 1501 1501 1495 1497 1493 1489 1489 1492 1490 1485 1479 1475 1472 1471 1471 1477 1477 1478 1476 1473 1473 1474 1473 1477 1480 1478 1477 1472 1469 1470 1467 1462 1457 1452 1451 1454
1508 1509 1510 1510 1508 1507 1506 1506 1505 1504 1499 1499 1499 1494 1489 1490 1491 1487 1485 1482 1482 1480 1472 1471 1471 1475 1482 1483 1479 1480 1472 1472 1475 1476 1473 1474 1465 1467 1465 1465 1462 1459 1454 1450 1447
Wind_Speed
11 11 11 11 11 12 11 11 12 12 13 13 12 13 12 11 10 12 15 10 3 7 7 5 6 2 5 2 2 2 2 2 1 3 4 13 5 6 8 15 5 3 10 19 27
12 13 13 13 13 13 13 13 13 12 13 13 12 12 12 12 11 12 11 12 7 7 7 3 3 3 2 2 1 0 1 2 1 1 2 14 8 13 6 16 7 15 18 28 28
13 14 14 15 15 15 14 14 14 13 13 12 11 12 11 11 6 1 8 9 8 8 7 5 1 2 2 1 2 2 2 3 3 3 4 7 12 8 11 11 10 23 28 29 28
14 15 15 16 16 16 16 15 15 14 13 12 11 10 11 7 1 2 5 11 11 10 8 4 1 0 3 2 2 3 6 8 5 2 3 6 14 8 13 2 12 26 33 30 28
15 15 16 17 17 16 16 16 15 14 13 12 10 9 9 5 4 2 5 12 11 10 7 3 1 2 5 3 2 4 3 2 2 3 4 13 8 4 9 3 20 26 29 30 27
16 16 17 17 18 18 17 16 16 14 12 11 9 8 7 4 3 2 7 10 9 9 8 7 1 4 8 3 4 4 7 3 1 8 10 11 7 8 5 16 23 28 28 28 27
17 17 18 19 19 18 17 16 15 13 11 9 8 7 10 10 3 6 10 8 5 3 7 8 8 7 10 9 3 5 1 3 4 5 3 10 4 6 15 18 23 24 25 25 24
18 18 18 19 19 19 16 13 11 10 7 6 6 6 5 4 10 9 12 9 7 6 6 5 6 7 4 9 5 3 2 4 2 4 4 4 1 4 17 21 20 21 25 22 23
19 19 18 18 19 17 13 13 7 7 3 5 5 5 3 5 7 10 12 8 5 7 8 3 4 4 2 4 2 3 7 10 4 4 4 6 1 9 17 16 19 21 23 25 23
20 20 18 18 18 12 12 8 7 5 2 5 8 3 5 6 3 9 10 11 7 4 4 4 4 3 3 2 4 9 9 6 7 3 5 4 6 12 18 18 19 21 22 24 24
21 20 18 16 17 9 10 5 5 3 8 7 2 3 6 5 6 9 11 14 12 5 6 6 6 10 5 2 2 5 8 12 11 2 3 3 5 12 18 20 20 21 22 23 25
22 21 18 14 13 8 5 5 7 8 9 11 16 21 19 8 3 8 11 11 7 11 3 5 14 6 4 4 3 4 9 11 4 2 3 3 11 12 20 26 28 27 25 25 24
22 22 18 13 8 7 0 7 12 11 4 6 4 5 4 15 7 8 16 10 5 8 8 14 5 6 3 3 5 6 7 10 9 1 3 8 7 4 11 19 22 25 26 26 27
22 23 18 11 1 7 2 8 13 6 3 1 0 1 4 6 5 9 14 10 4 13 6 8 5 7 3 5 4 8 6 10 2 2 4 6 6 4 5 11 15 24 26 28 30
22 22 17 10 8 5 3 7 9 3 1 8 2 2 5 5 1 6 14 5 7 6 6 5 4 9 12 8 5 1 2 5 4 3 3 1 4 4 1 8 14 21 26 23 26
21 21 17 10 6 2 4 6 0 2 2 2 2 2 2 3 1 4 6 3 3 4 1 6 1 2 3 3 2 9 2 3 2 2 4 3 4 5 3 4 7 18 24 27 25
20 20 15 6 3 5 3 1 2 3 2 5 3 5 3 3 4 4 8 9 7 6 9 4 10 4 4 7 3 5 3 3 2 1 4 2 4 9 7 7 5 10 15 25 25
21 14 6 4 6 4 0 2 3 2 3 3 4 3 1 3 1 2 7 11 3 3 3 8 7 10 9 14 7 8 5 4 4 3 5 1 5 6 2 1 11 9 9 14 25
17 6 3 1 4 6 3 1 2 0 3 8 8 2 3 2 1 3 7 10 11 11 6 5 5 1 5 3 9 6 6 2 1 2 3 3 6 10 4 8 13 10 7 9 16
13 4 8 4 8 8 2 1 1 3 4 1 3 4 4 4 2 2 4 3 4 12 6 5 4 0 2 4 5 4 10 3 1 3 7 4 5 7 6 3 4 6 9 11 13
5 4 6 8 7 3 2 0 3 6 5 2 1 2 2 3 3 0 3 2 2 2 9 7 5 3 2 5 8 4 4 2 2 2 4 4 4 4 4 5 9 9 10 12 15
4 2 5 6 2 2 2 1 4 4 1 4 2 4 3 3 3 1 1 2 0 5 6 7 3 9 13 1 1 0 2 6 4 5 2 3 7 2 2 5 8 12 11 11 13
4 3 2 6 2 2 2 3 3 3 4 2 3 3 0 3 2 2 2 1 4 2 5 8 5 4 4 3 3 5 5 3 4 1 5 4 5 5 7 8 8 7 9 15 19
3 1 4 4 5 2 2 2 5 4 2 5 4 3 5 5 4 2 2 1 4 2 1 8 3 4 7 1 1 6 7 6 3 4 6 5 7 13 13 13 13 10 8 8 16
6 3 2 2 3 3 1 3 4 5 3 7 1 9 5 2 1 2 2 5 1 2 2 2 1 2 2 4 4 5 7 8 6 2 4 2 5 9 11 15 16 19 8 6 12
4 3 3 1 3 2 2 2 3 4 3 3 7 13 7 3 3 4 7 2 2 3 1 1 2 2 2 4 2 5 5 7 3 2 4 5 10 4 16 14 13 12 12 10 8
6 5 2 3 2 1 1 2 1 7 2 5 11 8 6 4 13 18 13 14 8 5 3 2 3 1 2 3 4 4 7 6 4 4 3 4 4 13 13 11 7 12 10 11 12
Wind_Direction
9 5 359 353 347 339 334 328 322 321 319 318 314 309 304 296 282 269 260 253 256 219 201 212 203 282 349 338 332 339 314 359 44 181 117 151 132 146 108 140 125 185 150 156 155
4 359 355 351 345 338 333 327 322 319 318 317 316 311 309 308 297 258 263 254 243 204 205 220 198 322 353 319 139 308 313 339 237 183 156 168 146 149 141 151 115 93 129 153 159
1 357 352 347 343 337 331 325 320 317 316 314 316 312 313 320 310 226 250 219 193 182 195 204 26 28 329 277 201 181 269 292 317 233 158 129 138 149 150 190 179 150 146 156 162
358 353 349 344 341 336 328 322 318 314 313 312 316 312 313 315 172 318 232 181 179 181 207 195 357 23 283 311 225 281 274 262 313 29 177 164 150 155 170 164 178 164 160 161 166
354 350 346 342 338 334 327 320 312 309 309 305 308 311 317 285 256 352 147 162 176 194 211 217 237 276 301 355 204 243 273 216 225 225 203 146 165 149 189 109 154 160 162 167 171
348 346 344 341 337 334 328 316 310 306 299 294 294 300 305 270 228 176 144 163 183 208 223 231 106 328 294 311 285 267 290 293 208 154 155 162 153 148 148 136 149 162 171 173 176
341 342 341 341 338 336 328 317 312 304 288 278 276 281 277 251 223 180 148 151 172 220 258 273 285 279 327 316 309 281 269 287 68 140 90 140 170 178 157 150 155 168 176 184 186
337 337 340 340 339 338 329 323 311 310 288 259 261 279 259 243 218 181 165 167 193 231 237 287 289 276 262 303 313 20 201 348 109 168 112 177 236 131 167 157 163 176 179 192 197
334 335 337 340 340 342 334 330 312 327 259 242 257 260 253 208 231 219 214 214 264 237 233 228 3 239 270 267 359 28 323 321 333 195 131 206 251 169 178 184 171 183 189 193 203
332 332 336 340 342 349 341 325 316 304 235 256 247 266 233 175 173 194 207 218 219 189 178 199 206 230 189 309 316 313 317 309 290 136 169 194 243 176 188 192 194 189 195 199 205
334 331 334 340 344 360 360 336 334 296 294 233 229 256 281 266 263 205 202 202 200 197 202 184 213 223 235 213 298 281 280 293 301 149 189 242 236 189 196 202 202 206 200 205 211
338 333 332 339 344 1 20 58 35 324 305 289 263 254 247 246 310 191 175 172 182 216 163 204 232 199 145 154 260 256 290 313 324 18 261 288 276 226 197 209 206 200 206 211 215
341 336 333 337 341 350 209 18 353 343 263 295 275 263 237 217 230 207 179 172 165 195 198 224 242 161 208 185 272 283 293 320 312 30 99 320 280 194 218 224 219 217 211 213 216
337 337 336 339 10 336 240 340 337 342 314 302 158 301 184 161 214 202 182 174 163 204 173 246 199 205 192 258 229 291 336 311 337 270 328 356 304 276 225 219 223 217 215 214 215
335 335 332 322 316 327 298 322 323 342 173 351 76 119 167 198 101 177 183 180 180 164 193 209 198 197 222 245 193 350 35 68 85 99 283 139 273 270 287 245 222 213 215 219 218
332 329 320 306 298 249 313 316 209 255 231 48 86 50 176 223 111 109 170 149 131 138 237 247 299 238 198 171 236 170 126 70 85 352 290 68 283 300 220 240 217 216 219 218 217
331 325 310 294 249 285 308 145 210 225 345 17 352 336 274 210 199 163 169 179 188 204 228 248 243 219 183 232 130 183 197 292 259 193 273 112 243 265 258 251 219 186 216 214 213
333 328 309 264 249 243 209 174 216 26 338 342 324 305 219 170 156 149 170 189 189 152 145 212 232 196 184 216 217 197 228 232 267 266 309 313 248 312 250 269 227 236 240 208 209
340 342 28 236 211 189 142 160 20 209 322 330 316 19 67 121 197 177 197 200 212 194 223 180 247 219 209 154 197 157 207 349 214 121 266 270 272 280 250 251 243 240 211 197 201
350 101 38 88 125 136 84 111 255 235 304 313 349 2 343 351 221 170 183 152 219 202 221 198 264 42 91 170 68 234 139 177 193 263 272 239 275 272 297 223 206 221 211 193 186
13 90 78 86 114 53 70 42 277 256 242 259 269 294 300 305 323 121 154 181 256 91 199 174 229 191 235 199 180 154 184 76 152 249 278 296 275 223 282 246 208 216 205 201 204
62 85 125 39 66 36 78 299 314 311 331 273 274 251 251 296 283 232 169 233 227 165 173 194 203 239 248 163 343 227 222 199 219 189 240 305 274 169 45 355 312 279 252 222 217
58 76 91 15 84 61 359 302 270 319 325 322 282 230 209 280 294 249 250 149 47 171 174 173 212 225 218 170 145 208 180 177 110 137 187 236 276 113 76 54 23 322 302 256 253
37 91 45 61 67 26 4 354 325 321 289 311 300 346 321 256 225 289 281 269 344 359 239 155 158 233 247 261 130 169 171 176 205 200 159 235 294 299 348 359 355 328 298 285 247
38 55 28 36 62 18 312 346 327 358 355 6 113 357 293 296 258 230 294 302 130 76 72 243 218 218 301 254 192 142 161 173 208 164 234 56 261 328 343 332 323 310 283 257 224
68 33 11 22 320 308 353 50 356 338 309 13 6 337 355 62 26 304 356 332 359 330 203 182 149 163 56 8 290 139 129 141 153 161 265 293 286 61 331 321 321 322 309 283 207
49 37 30 7 354 280 91 359 8 349 241 279 339 324 313 359 313 284 256 274 275 309 325 325 136 143 152 3 327 189 189 178 149 197 191 251 306 332 332 334 346 338 336 304 280